Location: Beneden-Haastrecht
(52.0012°N, 4.7557°E)
Time: 02:40:15
(UTC+00:00)

Ariane Rocket - Pass Details

Date: 24 October 2020
Orbit: 759 x 770 km, 98.7° (Epoch: 24 November)

Event Time Altitude Azimuth Distance (km) Brightness Sun altitude
Exits shadow 19:18:50 82° 6° (N) 787 2.9 -26.9°
Drops below altitude 10° 19:23:45 10° 345° (NNW) 2,326 5.8 -27.6°
Sets 19:26:04 0° 345° (NNW) 3,257 6.7 -27.9°
